Location: Newark
(44.6028°N, 124.0883°W)
Time: 04:40:01
(UTC+00:00)

A-11 Canister half - Pass Details

Date: 27 October 2019
Orbit: 1514 x 1686 km, 47.2° (Epoch: 16 November)

Event Time Altitude Azimuth Distance (km) Brightness Sun altitude
Exits shadow 09:16:44 22° 72° (ENE) 3,010 10.7 -54.2°
Drops below altitude 10° 09:19:23 10° 71° (ENE) 3,819 11.4 -53.9°
Sets 09:22:26 0° 70° (ENE) 4,783 12.0 -53.6°
